カタログに戻る

CZ-6A DEB

運用中SSO
NORAD 56627·DEBRIS·🇨🇳 China

打ち上げ Nov 11, 2022 から Taiyuan Satellite Launch Center

Loading…

次のパス (今後24時間)

TLE

経年Source: Space-Track

元期: Sep 10, 2026, 06:38 UTC

1 56627U 22151AFB 26253.27693556  .00001487  00000-0  70922-3 0  9991
2 56627  98.8253 265.3906 0037645  64.6536 295.8531 14.20412280183828

AllMySatでCZ-6A DEBをリアルタイム追跡

Download on the App Store